START_TIME,STEP,MOV.,H8,t_acc.,H43,t_acc.,M25,t_acc.,H9,t_acc.
1979-07-26 18:00:28.810 ,0,1,0.,12.0,0.,12.0,0.,12.0,0.,12.0
1979-07-26 18:00:40.810 ,0,1,0.,12.0,0.,12.0,0.,12.0,0.,12.0
1979-07-26 18:00:52.810 ,4,1,0.,12.0,0.,12.0,0.,12.0,0.,12.0
1979-07-26 18:01:04.810 ,4,1,0.,12.0,0.,12.0,0.,12.0,0.,12.0
1979-07-26 18:01:16.810 ,7,1,0.,12.0,0.,12.0,0.,12.0,0.,12.0
1979-07-26 18:01:28.810 ,7,1,0.,12.0,0.,12.0,0.,12.0,0.,12.0
1979-07-26 18:01:40.810 ,3,1,0.,12.0,0.,12.0,0.,12.0,0.,12.0
1979-07-26 18:01:52.810 ,3,1,0.,12.0,0.,12.0,0.,12.0,0.,12.0
1979-07-26 18:02:04.810 ,0,1,0.,12.0,0.,12.0,0.,12.0,0.,12.0
1979-07-26 18:02:16.810 ,0,1,0.,12.0,0.,12.0,0.,12.0,0.,12.0
1979-07-26 18:02:28.810 ,4,1,0.,12.0,0.,12.0,0.,12.0,0.,12.0
1979-07-26 18:02:40.810 ,4,1,0.,12.0,0.,12.0,0.,12.0,0.,12.0
1979-07-26 18:02:52.810 ,7,1,0.,12.0,0.,12.0,0.,12.0,0.,12.0
1979-07-26 18:03:04.810 ,7,1,0.,12.0,0.,12.0,0.,12.0,0.,12.0
1979-07-26 18:03:16.810 ,3,1,0.,12.0,0.,12.0,0.,12.0,0.,12.0
1979-07-26 18:03:28.810 ,3,1,0.,12.0,0.,12.0,0.,12.0,0.,12.0
1979-07-26 18:03:40.810 ,0,1,0.,12.0,0.,12.0,0.,12.0,0.,12.0
1979-07-26 18:03:52.810 ,0,1,0.,12.0,0.,12.0,0.,12.0,0.,12.0
1979-07-26 18:04:04.810 ,4,1,0.,12.0,0.,12.0,0.,12.0,0.,12.0
1979-07-26 18:04:16.810 ,4,1,0.,12.0,0.,12.0,0.,12.0,0.,12.0
1979-07-26 18:04:28.810 ,7,1,0.,12.0,0.,12.0,0.,12.0,0.,12.0
1979-07-26 18:04:40.810 ,7,1,0.,12.0,0.,12.0,0.,12.0,0.,12.0
1979-07-26 18:04:52.810 ,3,1,0.,12.0,0.,12.0,0.,12.0,0.,12.0
1979-07-26 18:05:04.810 ,3,1,0.,12.0,0.,12.0,0.,12.0,0.,12.0
1979-07-26 18:05:16.810 ,0,1,0.,12.0,0.,12.0,0.,12.0,0.,12.0
1979-07-26 18:05:28.810 ,0,1,0.,12.0,0.,12.0,0.,12.0,0.,12.0
1979-07-26 18:05:40.810 ,0,0,0.,12.0,0.,12.0,0.,12.0,0.,12.0
1979-07-26 18:05:52.810 ,0,0,0.,12.0,0.,12.0,0.,12.0,0.,12.0
1979-07-26 18:06:04.810 ,0,0,0.,12.0,0.,12.0,0.,12.0,0.,12.0
1979-07-26 18:06:16.810 ,0,0,0.,12.0,0.,12.0,0.,12.0,0.,12.0
1979-07-26 18:06:28.810 ,5,0,0.,12.0,0.,12.0,0.,12.0,0.,12.0
1979-07-26 18:06:40.810 ,5,0,0.,12.0,0.,12.0,0.,12.0,0.,12.0
1979-07-26 18:06:52.810 ,5,0,0.,12.0,0.,12.0,0.,12.0,0.,12.0
1979-07-26 18:07:04.810 ,5,0,0.,12.0,0.,12.0,0.,12.0,0.,12.0
1979-07-26 18:07:16.810 ,4,0,0.,12.0,0.,12.0,0.,12.0,0.,12.0
1979-07-26 18:07:28.810 ,4,0,0.,12.0,0.,12.0,0.,12.0,0.,12.0
1979-07-26 18:07:40.810 ,4,0,0.,12.0,0.,12.0,0.,12.0,0.,12.0
1979-07-26 18:07:52.810 ,4,0,0.,12.0,0.,12.0,0.,12.0,0.,12.0
1979-07-26 18:08:04.810 ,3,0,0.,12.0,0.,12.0,0.,12.0,0.,12.0
1979-07-26 18:08:16.810 ,3,0,0.,12.0,0.,12.0,0.,12.0,0.,12.0
1979-07-26 18:08:28.810 ,3,0,0.,12.0,0.,12.0,0.,12.0,0.,12.0
1979-07-26 18:08:40.810 ,3,0,0.,12.0,0.,12.0,0.,12.0,0.,12.0
1979-07-26 18:08:52.810 ,2,0,0.,12.0,0.,12.0,0.,12.0,0.,12.0
1979-07-26 18:09:04.810 ,2,0,0.,12.0,0.,12.0,0.,12.0,0.,12.0
1979-07-26 18:09:16.810 ,2,0,0.,12.0,0.,12.0,0.,12.0,0.,12.0
1979-07-26 18:09:28.810 ,2,0,0.,12.0,0.,12.0,0.,12.0,0.,12.0
1979-07-26 18:09:40.810 ,1,0,0.,12.0,0.,12.0,0.,12.0,0.,12.0
1979-07-26 18:09:52.810 ,1,0,0.,12.0,0.,12.0,0.,12.0,0.,12.0
1979-07-26 18:10:04.810 ,1,0,0.,12.0,0.,12.0,0.,12.0,0.,12.0
1979-07-26 18:10:16.810 ,1,0,0.,12.0,0.,12.0,0.,12.0,0.,12.0
1979-07-26 18:10:28.810 ,0,0,0.,12.0,0.,12.0,0.,12.0,0.,12.0
1979-07-26 18:10:40.810 ,0,0,0.,12.0,0.,12.0,0.,12.0,0.,12.0
1979-07-26 18:10:52.810 ,0,0,0.,12.0,0.,12.0,0.,12.0,0.,12.0
1979-07-26 18:11:04.810 ,0,0,0.,12.0,0.,12.0,0.,12.0,0.,12.0
1979-07-26 18:11:16.810 ,0,0,0.,12.0,0.,12.0,0.,12.0,0.,12.0
1979-07-26 18:11:28.810 ,0,0,0.,12.0,0.,12.0,0.,12.0,0.,12.0
1979-07-26 18:11:40.810 ,0,0,0.,12.0,0.,12.0,0.,12.0,0.,12.0
1979-07-26 18:11:52.810 ,0,0,0.,12.0,0.,12.0,0.,12.0,0.,12.0
1979-07-26 18:12:04.810 ,1,0,0.,12.0,0.,12.0,0.,12.0,0.,12.0
1979-07-26 18:12:16.810 ,1,0,0.,12.0,0.,12.0,0.,12.0,0.,12.0
1979-07-26 18:12:28.810 ,1,0,0.,12.0,0.,12.0,0.,12.0,0.,12.0
1979-07-26 18:12:40.810 ,1,0,0.,12.0,0.,12.0,0.,12.0,0.,12.0
1979-07-26 18:12:52.810 ,2,0,0.,12.0,0.,12.0,0.,12.0,0.,12.0
1979-07-26 18:13:04.810 ,2,0,0.,12.0,0.,12.0,0.,12.0,0.,12.0
1979-07-26 18:13:16.810 ,2,0,0.,12.0,0.,12.0,0.,12.0,0.,12.0
1979-07-26 18:13:28.810 ,2,0,0.,12.0,0.,12.0,0.,12.0,0.,12.0
1979-07-26 18:13:40.810 ,3,0,0.,12.0,0.,12.0,0.,12.0,0.,12.0
1979-07-26 18:13:52.810 ,3,0,0.,12.0,0.,12.0,0.,12.0,0.,12.0
1979-07-26 18:14:04.810 ,3,0,0.,12.0,0.,12.0,0.,12.0,0.,12.0
1979-07-26 18:14:16.810 ,3,0,0.,12.0,0.,12.0,0.,12.0,0.,12.0
1979-07-26 18:14:28.810 ,4,0,0.,12.0,0.,12.0,0.,12.0,0.,12.0
1979-07-26 18:14:40.810 ,4,0,0.,12.0,0.,12.0,0.,12.0,0.,12.0
1979-07-26 18:14:52.810 ,4,0,0.,12.0,0.,12.0,0.,12.0,0.,12.0
1979-07-26 18:15:04.810 ,4,0,0.,12.0,0.,12.0,0.,12.0,0.,12.0
1979-07-26 18:15:16.810 ,5,0,0.,12.0,0.,12.0,0.,12.0,0.,12.0
1979-07-26 18:15:28.810 ,5,0,0.,12.0,0.,12.0,0.,12.0,0.,12.0
1979-07-26 18:15:40.810 ,5,0,0.,12.0,0.,12.0,0.,12.0,0.,12.0
1979-07-26 18:15:52.810 ,5,0,0.,12.0,0.,12.0,0.,12.0,0.,12.0
1979-07-26 18:16:04.810 ,6,0,0.,12.0,0.,12.0,0.,12.0,0.,12.0
1979-07-26 18:16:16.810 ,6,0,0.,12.0,0.,12.0,0.,12.0,0.,12.0
1979-07-26 18:16:28.810 ,6,0,0.,12.0,0.,12.0,0.,12.0,0.,12.0
1979-07-26 18:16:40.810 ,6,0,0.,12.0,0.,12.0,0.,12.0,0.,12.0
1979-07-26 18:16:52.810 ,7,0,0.,12.0,0.,12.0,0.,12.0,0.,12.0
1979-07-26 18:17:04.810 ,7,0,0.,12.0,0.,12.0,0.,12.0,0.,12.0
1979-07-26 18:17:16.810 ,7,0,0.,12.0,0.,12.0,0.,12.0,0.,12.0
1979-07-26 18:17:28.810 ,7,0,0.,12.0,0.,12.0,0.,12.0,0.,12.0
1979-07-26 18:17:40.810 ,7,0,0.,12.0,0.,12.0,0.,12.0,0.,12.0
1979-07-26 18:17:52.810 ,7,0,0.,12.0,0.,12.0,0.,12.0,0.,12.0
1979-07-26 18:18:04.810 ,7,0,0.,12.0,0.,12.0,0.,12.0,0.,12.0
1979-07-26 18:18:16.810 ,7,0,0.,12.0,0.,12.0,0.,12.0,0.,12.0
1979-07-26 18:18:28.810 ,6,0,0.,12.0,0.,12.0,0.,12.0,0.,12.0
1979-07-26 18:18:40.810 ,6,0,0.,12.0,0.,12.0,0.,12.0,0.,12.0
1979-07-26 18:18:52.810 ,6,0,0.,12.0,0.,12.0,0.,12.0,0.,12.0
1979-07-26 18:19:04.810 ,6,0,0.,12.0,0.,12.0,0.,12.0,0.,12.0
1979-07-26 18:19:16.810 ,5,0,0.,12.0,0.,12.0,0.,12.0,0.,12.0
1979-07-26 18:19:28.810 ,5,0,0.,12.0,0.,12.0,0.,12.0,0.,12.0
1979-07-26 18:19:40.810 ,5,0,0.,12.0,0.,12.0,0.,12.0,0.,12.0
1979-07-26 18:19:52.810 ,5,0,0.,12.0,0.,12.0,0.,12.0,0.,12.0
1979-07-26 18:20:04.810 ,4,0,0.,12.0,0.,12.0,0.,12.0,0.,12.0
1979-07-26 18:20:16.810 ,4,0,0.,12.0,0.,12.0,0.,12.0,0.,12.0
1979-07-26 18:20:28.810 ,4,0,0.,12.0,0.,12.0,0.,12.0,0.,12.0
1979-07-26 18:20:40.810 ,4,0,0.,12.0,0.,12.0,0.,12.0,0.,12.0
1979-07-26 18:20:52.810 ,3,0,0.,12.0,0.,12.0,0.,12.0,0.,12.0
1979-07-26 18:21:04.810 ,3,0,0.,12.0,0.,12.0,0.,12.0,0.,12.0
1979-07-26 18:21:16.810 ,3,0,0.,12.0,0.,12.0,0.,12.0,0.,12.0
1979-07-26 18:21:28.810 ,3,0,0.,12.0,0.,12.0,0.,12.0,0.,12.0
1979-07-26 18:21:40.810 ,2,0,0.,12.0,0.,12.0,0.,12.0,0.,12.0
1979-07-26 18:21:52.810 ,2,0,0.,12.0,0.,12.0,0.,12.0,0.,12.0
1979-07-26 18:22:04.810 ,2,0,0.,12.0,0.,12.0,0.,12.0,0.,12.0
1979-07-26 18:22:16.810 ,2,0,0.,12.0,0.,12.0,0.,12.0,0.,12.0
1979-07-26 18:22:28.810 ,1,0,0.,12.0,0.,12.0,0.,12.0,0.,12.0
1979-07-26 18:22:40.810 ,1,0,0.,12.0,0.,12.0,0.,12.0,0.,12.0
1979-07-26 18:22:52.810 ,1,0,0.,12.0,0.,12.0,0.,12.0,0.,12.0
1979-07-26 18:23:04.810 ,1,0,0.,12.0,0.,12.0,0.,12.0,0.,12.0
1979-07-26 18:23:16.810 ,0,0,0.,12.0,0.,12.0,0.,12.0,0.,12.0
1979-07-26 18:23:28.810 ,0,0,0.,12.0,0.,12.0,0.,12.0,0.,12.0
1979-07-26 18:23:40.810 ,0,0,0.,12.0,0.,12.0,0.,12.0,0.,12.0
1979-07-26 18:23:52.810 ,0,0,0.,12.0,0.,12.0,0.,12.0,0.,12.0
1979-07-26 18:24:04.810 ,0,0,0.,12.0,0.,12.0,0.,12.0,0.,12.0
1979-07-26 18:24:16.810 ,0,0,0.,12.0,0.,12.0,0.,12.0,0.,12.0
1979-07-26 18:24:28.810 ,0,0,0.,12.0,0.,12.0,0.,12.0,0.,12.0
1979-07-26 18:24:40.810 ,0,0,0.,12.0,0.,12.0,0.,12.0,0.,12.0
1979-07-26 18:24:52.810 ,1,0,0.,12.0,0.,12.0,0.,12.0,0.,12.0
1979-07-26 18:25:04.810 ,1,0,0.,12.0,0.,12.0,0.,12.0,0.,12.0
1979-07-26 18:25:16.810 ,1,0,0.,12.0,0.,12.0,0.,12.0,0.,12.0
1979-07-26 18:25:28.810 ,1,0,0.,12.0,0.,12.0,0.,12.0,0.,12.0
1979-07-26 18:25:40.810 ,2,0,0.,12.0,0.,12.0,0.,12.0,0.,12.0
1979-07-26 18:25:52.810 ,2,0,0.,12.0,0.,12.0,0.,12.0,0.,12.0
1979-07-26 18:26:04.810 ,2,0,0.,12.0,0.,12.0,0.,12.0,0.,12.0
1979-07-26 18:26:16.810 ,2,0,0.,12.0,0.,12.0,0.,12.0,0.,12.0
1979-07-26 18:26:28.810 ,3,0,0.,12.0,0.,12.0,0.,12.0,0.,12.0
1979-07-26 18:26:40.810 ,3,0,0.,12.0,0.,12.0,0.,12.0,0.,12.0
1979-07-26 18:26:52.810 ,3,0,0.,12.0,0.,12.0,0.,12.0,0.,12.0
1979-07-26 18:27:04.810 ,3,0,0.,12.0,0.,12.0,0.,12.0,0.,12.0
1979-07-26 18:27:16.810 ,4,0,0.,12.0,0.,12.0,0.,12.0,0.,12.0
1979-07-26 18:27:28.810 ,4,0,0.,12.0,0.,12.0,0.,12.0,0.,12.0
1979-07-26 18:27:40.810 ,4,0,0.,12.0,0.,12.0,0.,12.0,0.,12.0
1979-07-26 18:27:52.810 ,4,0,0.,12.0,0.,12.0,0.,12.0,0.,12.0
1979-07-26 18:28:04.810 ,5,0,0.,12.0,0.,12.0,0.,12.0,0.,12.0
1979-07-26 18:28:16.810 ,5,0,0.,12.0,0.,12.0,0.,12.0,0.,12.0
1979-07-26 18:28:28.810 ,5,0,0.,12.0,0.,12.0,0.,12.0,0.,12.0
1979-07-26 18:28:40.810 ,5,0,0.,12.0,0.,12.0,0.,12.0,0.,12.0
1979-07-26 18:28:52.810 ,6,0,0.,12.0,0.,12.0,0.,12.0,0.,12.0
1979-07-26 18:29:04.810 ,6,0,0.,12.0,0.,12.0,0.,12.0,0.,12.0
1979-07-26 18:29:16.810 ,6,0,0.,12.0,0.,12.0,0.,12.0,0.,12.0
1979-07-26 18:29:28.810 ,6,0,0.,12.0,0.,12.0,0.,12.0,0.,12.0
1979-07-26 18:29:40.810 ,7,0,0.,12.0,0.,12.0,0.,12.0,0.,12.0
1979-07-26 18:29:52.810 ,7,0,0.,12.0,0.,12.0,0.,12.0,0.,12.0
1979-07-26 18:30:04.810 ,7,0,0.,12.0,0.,12.0,0.,12.0,0.,12.0
1979-07-26 18:30:16.810 ,7,0,0.,12.0,0.,12.0,0.,12.0,0.,12.0
1979-07-26 18:30:28.810 ,7,0,0.,12.0,0.,12.0,0.,12.0,0.,12.0
1979-07-26 18:30:40.810 ,7,0,0.,12.0,0.,12.0,0.,12.0,0.,12.0
1979-07-26 18:30:52.810 ,7,0,0.,12.0,0.,12.0,0.,12.0,0.,12.0
1979-07-26 18:31:04.810 ,7,0,0.,12.0,0.,12.0,0.,12.0,0.,12.0
1979-07-26 18:31:16.810 ,6,0,0.,12.0,0.,12.0,0.,12.0,0.,12.0
1979-07-26 18:31:28.810 ,6,0,0.,12.0,0.,12.0,0.,12.0,0.,12.0
1979-07-26 18:31:40.810 ,6,0,0.,12.0,0.,12.0,0.,12.0,0.,12.0
1979-07-26 18:31:52.810 ,6,0,0.,12.0,0.,12.0,0.,12.0,0.,12.0
1979-07-26 18:32:04.810 ,5,0,0.,12.0,0.,12.0,0.,12.0,0.,12.0
1979-07-26 18:32:16.810 ,5,0,0.,12.0,0.,12.0,0.,12.0,0.,12.0
1979-07-26 18:32:28.810 ,5,0,0.,12.0,0.,12.0,0.,12.0,0.,12.0
1979-07-26 18:32:40.810 ,5,0,0.,12.0,0.,12.0,0.,12.0,0.,12.0
1979-07-26 18:32:52.810 ,4,0,0.,12.0,0.,12.0,0.,12.0,0.,12.0
1979-07-26 18:33:04.810 ,4,0,0.,12.0,0.,12.0,0.,12.0,0.,12.0
1979-07-26 18:33:16.810 ,4,0,0.,12.0,0.,12.0,0.,12.0,0.,12.0
1979-07-26 18:33:28.810 ,4,0,0.,12.0,0.,12.0,0.,12.0,0.,12.0
1979-07-26 18:33:40.810 ,3,0,0.,12.0,0.,12.0,0.,12.0,0.,12.0
1979-07-26 18:33:52.810 ,3,0,0.,12.0,0.,12.0,0.,12.0,0.,12.0
1979-07-26 18:34:04.810 ,3,0,0.,12.0,0.,12.0,0.,12.0,0.,12.0
1979-07-26 18:34:16.810 ,3,0,0.,12.0,0.,12.0,0.,12.0,0.,12.0
1979-07-26 18:34:28.810 ,2,0,0.,12.0,0.,12.0,0.,12.0,0.,12.0
1979-07-26 18:34:40.810 ,2,0,0.,12.0,0.,12.0,0.,12.0,0.,12.0
1979-07-26 18:34:52.810 ,2,0,0.,12.0,0.,12.0,0.,12.0,0.,12.0
1979-07-26 18:35:04.810 ,2,0,0.,12.0,0.,12.0,0.,12.0,0.,12.0
1979-07-26 18:35:16.810 ,1,0,0.,12.0,0.,12.0,0.,12.0,0.,12.0
1979-07-26 18:35:28.810 ,1,0,0.,12.0,0.,12.0,0.,12.0,0.,12.0
1979-07-26 18:35:40.810 ,1,0,0.,12.0,0.,12.0,0.,12.0,0.,12.0
1979-07-26 18:35:52.810 ,1,0,0.,12.0,0.,12.0,0.,12.0,0.,12.0
1979-07-26 18:36:04.810 ,0,0,0.,12.0,0.,12.0,0.,12.0,0.,12.0
1979-07-26 18:36:16.810 ,0,0,0.,12.0,0.,12.0,0.,12.0,0.,12.0
1979-07-26 18:36:28.810 ,0,0,0.,12.0,0.,12.0,0.,12.0,0.,12.0
1979-07-26 18:36:40.810 ,0,0,0.,12.0,0.,12.0,0.,12.0,0.,12.0
1979-07-26 18:36:52.810 ,0,0,0.,12.0,0.,12.0,0.,12.0,0.,12.0
1979-07-26 18:37:04.810 ,0,0,0.,12.0,0.,12.0,0.,12.0,0.,12.0
1979-07-26 18:37:16.810 ,0,0,0.,12.0,0.,12.0,0.,12.0,0.,12.0
1979-07-26 18:37:28.810 ,0,0,0.,12.0,0.,12.0,0.,12.0,0.,12.0
1979-07-26 18:37:40.810 ,1,0,0.,12.0,0.,12.0,0.,12.0,0.,12.0
1979-07-26 18:37:52.810 ,1,0,0.,12.0,0.,12.0,0.,12.0,0.,12.0
1979-07-26 18:38:04.810 ,1,0,0.,12.0,0.,12.0,0.,12.0,0.,12.0
1979-07-26 18:38:16.810 ,1,0,0.,12.0,0.,12.0,0.,12.0,0.,12.0
1979-07-26 18:38:28.810 ,2,0,0.,12.0,0.,12.0,0.,12.0,0.,12.0
1979-07-26 18:38:40.810 ,2,0,0.,12.0,0.,12.0,0.,12.0,0.,12.0
1979-07-26 18:38:52.810 ,2,0,0.,12.0,0.,12.0,0.,12.0,0.,12.0
1979-07-26 18:39:04.810 ,2,0,0.,12.0,0.,12.0,0.,12.0,0.,12.0
1979-07-26 18:39:16.810 ,3,0,0.,12.0,0.,12.0,0.,12.0,0.,12.0
1979-07-26 18:39:28.810 ,3,0,0.,12.0,0.,12.0,0.,12.0,0.,12.0
1979-07-26 18:39:40.810 ,3,0,0.,12.0,0.,12.0,0.,12.0,0.,12.0
1979-07-26 18:39:52.810 ,3,0,0.,12.0,0.,12.0,0.,12.0,0.,12.0
1979-07-26 18:40:04.810 ,4,0,0.,12.0,0.,12.0,0.,12.0,0.,12.0
1979-07-26 18:40:16.810 ,4,0,0.,12.0,0.,12.0,0.,12.0,0.,12.0
1979-07-26 18:40:28.810 ,4,0,0.,12.0,0.,12.0,0.,12.0,0.,12.0
1979-07-26 18:40:40.810 ,4,0,0.,12.0,0.,12.0,0.,12.0,0.,12.0
1979-07-26 18:40:52.810 ,5,0,0.,12.0,0.,12.0,0.,12.0,0.,12.0
1979-07-26 18:41:04.810 ,5,0,0.,12.0,0.,12.0,0.,12.0,0.,12.0
1979-07-26 18:41:16.810 ,5,0,0.,12.0,0.,12.0,0.,12.0,0.,12.0
1979-07-26 18:41:28.810 ,5,0,0.,12.0,0.,12.0,0.,12.0,0.,12.0
1979-07-26 18:41:40.810 ,6,0,0.,12.0,0.,12.0,0.,12.0,0.,12.0
1979-07-26 18:41:52.810 ,6,0,0.,12.0,0.,12.0,0.,12.0,0.,12.0
1979-07-26 18:42:04.810 ,6,0,0.,12.0,0.,12.0,0.,12.0,0.,12.0
1979-07-26 18:42:16.810 ,6,0,0.,12.0,0.,12.0,0.,12.0,0.,12.0
1979-07-26 18:42:28.810 ,7,0,0.,12.0,0.,12.0,0.,12.0,0.,12.0
1979-07-26 18:42:40.810 ,7,0,0.,12.0,0.,12.0,0.,12.0,0.,12.0
1979-07-26 18:42:52.810 ,7,0,0.,12.0,0.,12.0,0.,12.0,0.,12.0
1979-07-26 18:43:04.810 ,7,0,0.,12.0,0.,12.0,0.,12.0,0.,12.0
1979-07-26 18:43:16.810 ,3,1,0.,12.0,0.,12.0,0.,12.0,0.,12.0
1979-07-26 18:43:28.810 ,3,1,0.,12.0,0.,12.0,0.,12.0,0.,12.0
1979-07-26 18:43:40.810 ,0,1,0.,12.0,0.,12.0,0.,12.0,0.,12.0
1979-07-26 18:43:52.810 ,0,1,0.,12.0,0.,12.0,0.,12.0,0.,12.0
1979-07-26 18:44:04.810 ,4,1,0.,12.0,0.,12.0,0.,12.0,0.,12.0
1979-07-26 18:44:16.810 ,4,1,0.,12.0,0.,12.0,0.,12.0,0.,12.0
1979-07-26 18:44:28.810 ,7,1,0.,12.0,0.,12.0,0.,12.0,0.,12.0
1979-07-26 18:44:40.810 ,7,1,0.,12.0,0.,12.0,0.,12.0,0.,12.0
1979-07-26 18:44:52.810 ,3,1,0.,12.0,0.,12.0,0.,12.0,0.,12.0
1979-07-26 18:45:04.810 ,3,1,0.,12.0,0.,12.0,0.,12.0,0.,12.0
1979-07-26 18:45:16.810 ,0,1,0.,12.0,0.,12.0,0.,12.0,0.,12.0
1979-07-26 18:45:28.810 ,0,1,0.,12.0,0.,12.0,0.,12.0,0.,12.0
1979-07-26 18:45:40.810 ,4,1,0.,12.0,0.,12.0,0.,12.0,0.,12.0
1979-07-26 18:45:52.810 ,4,1,0.,12.0,0.,12.0,0.,12.0,0.,12.0
1979-07-26 18:46:04.810 ,7,1,0.,12.0,0.,12.0,0.,12.0,0.,12.0
1979-07-26 18:46:16.810 ,7,1,0.,12.0,0.,12.0,0.,12.0,0.,12.0
1979-07-26 18:46:28.810 ,3,1,0.,12.0,0.,12.0,0.,12.0,0.,12.0
1979-07-26 18:46:40.810 ,3,1,0.,12.0,0.,12.0,0.,12.0,0.,12.0
1979-07-26 18:46:52.810 ,0,1,0.,12.0,0.,12.0,0.,12.0,0.,12.0
1979-07-26 18:47:04.810 ,0,1,0.,12.0,0.,12.0,0.,12.0,0.,12.0
1979-07-26 18:47:16.810 ,4,1,0.,12.0,0.,12.0,0.,12.0,0.,12.0
1979-07-26 18:47:28.810 ,4,1,0.,12.0,0.,12.0,0.,12.0,0.,12.0
1979-07-26 18:47:40.810 ,7,1,0.,12.0,0.,12.0,0.,12.0,0.,12.0
1979-07-26 18:47:52.810 ,7,1,0.,12.0,0.,12.0,0.,12.0,0.,12.0
1979-07-26 18:48:04.810 ,3,1,0.,12.0,0.,12.0,0.,12.0,0.,12.0
1979-07-26 18:48:16.810 ,3,1,0.,12.0,0.,12.0,0.,12.0,0.,12.0
1979-07-26 18:48:28.810 ,0,0,0.,12.0,0.,12.0,0.,12.0,0.,12.0
1979-07-26 18:48:40.810 ,0,0,0.,12.0,0.,12.0,0.,12.0,0.,12.0
1979-07-26 18:48:52.810 ,0,0,204800.,12.0,27648.,12.0,131072.,12.0,2097152.,12.0
1979-07-26 18:49:04.810 ,0,0,,0,,0,,0,,0
1979-07-26 18:49:16.810 ,0,0,,0,,0,,0,,0
1979-07-26 18:49:28.810 ,0,0,,0,,0,,0,,0
1979-07-26 18:50:12.010 ,0,0,,0,,0,,0,,0
1979-07-26 18:50:24.010 ,0,0,0.,12.0,0.,12.0,0.,12.0,0.,12.0
1979-07-26 18:50:28.810 ,4,1,0.,12.0,0.,12.0,0.,12.0,0.,12.0
1979-07-26 18:50:40.810 ,4,1,0.,12.0,0.,12.0,0.,12.0,0.,12.0
1979-07-26 18:50:52.810 ,7,1,0.,12.0,0.,12.0,0.,12.0,0.,12.0
1979-07-26 18:51:04.810 ,7,1,0.,12.0,0.,12.0,0.,12.0,0.,12.0
1979-07-26 18:51:16.810 ,3,1,0.,12.0,0.,12.0,0.,12.0,0.,12.0
1979-07-26 18:51:28.810 ,3,1,0.,12.0,0.,12.0,0.,12.0,0.,12.0
1979-07-26 18:51:40.810 ,0,1,0.,12.0,0.,12.0,0.,12.0,0.,12.0
1979-07-26 18:51:52.810 ,0,1,0.,12.0,0.,12.0,0.,12.0,0.,12.0
1979-07-26 18:52:04.810 ,4,1,0.,12.0,0.,12.0,0.,12.0,0.,12.0
1979-07-26 18:52:16.810 ,4,1,0.,12.0,0.,12.0,0.,12.0,0.,12.0
1979-07-26 18:52:28.810 ,7,1,0.,12.0,0.,12.0,0.,12.0,0.,12.0
1979-07-26 18:52:40.810 ,7,1,0.,12.0,0.,12.0,0.,12.0,0.,12.0
1979-07-26 18:52:52.810 ,3,1,0.,12.0,0.,12.0,0.,12.0,0.,12.0
1979-07-26 18:53:04.810 ,3,1,0.,12.0,0.,12.0,0.,12.0,0.,12.0
1979-07-26 18:53:16.810 ,0,1,0.,12.0,0.,12.0,0.,12.0,0.,12.0
1979-07-26 18:53:28.810 ,0,1,0.,12.0,0.,12.0,0.,12.0,0.,12.0
1979-07-26 18:53:40.810 ,0,0,0.,12.0,0.,12.0,0.,12.0,0.,12.0
1979-07-26 18:53:52.810 ,0,0,0.,12.0,0.,12.0,0.,12.0,0.,12.0
1979-07-26 18:54:04.810 ,0,0,0.,12.0,0.,12.0,0.,12.0,0.,12.0
1979-07-26 18:54:16.810 ,0,0,0.,12.0,0.,12.0,0.,12.0,0.,12.0
1979-07-26 18:54:28.810 ,5,0,0.,12.0,0.,12.0,0.,12.0,0.,12.0
1979-07-26 18:54:40.810 ,5,0,0.,12.0,0.,12.0,0.,12.0,0.,12.0
1979-07-26 18:54:52.810 ,5,0,0.,12.0,0.,12.0,0.,12.0,0.,12.0
1979-07-26 18:55:04.810 ,5,0,0.,12.0,0.,12.0,0.,12.0,0.,12.0
1979-07-26 18:55:16.810 ,4,0,0.,12.0,0.,12.0,0.,12.0,0.,12.0
1979-07-26 18:55:28.810 ,4,0,0.,12.0,0.,12.0,0.,12.0,0.,12.0
1979-07-26 18:55:40.810 ,4,0,0.,12.0,0.,12.0,0.,12.0,0.,12.0
1979-07-26 18:55:52.810 ,4,0,0.,12.0,0.,12.0,0.,12.0,0.,12.0
1979-07-26 18:56:04.810 ,3,0,0.,12.0,0.,12.0,0.,12.0,0.,12.0
1979-07-26 18:56:16.810 ,3,0,0.,12.0,0.,12.0,0.,12.0,0.,12.0
1979-07-26 18:56:28.810 ,3,0,0.,12.0,0.,12.0,0.,12.0,0.,12.0
1979-07-26 18:56:40.810 ,3,0,0.,12.0,0.,12.0,0.,12.0,0.,12.0
1979-07-26 18:56:52.810 ,2,0,0.,12.0,0.,12.0,0.,12.0,0.,12.0
1979-07-26 18:57:04.810 ,2,0,0.,12.0,0.,12.0,0.,12.0,0.,12.0
1979-07-26 18:57:16.810 ,2,0,0.,12.0,0.,12.0,0.,12.0,0.,12.0
1979-07-26 18:57:28.810 ,2,0,0.,12.0,0.,12.0,0.,12.0,0.,12.0
1979-07-26 18:57:40.810 ,1,0,0.,12.0,0.,12.0,0.,12.0,0.,12.0
1979-07-26 18:57:52.810 ,1,0,0.,12.0,0.,12.0,0.,12.0,0.,12.0
1979-07-26 18:58:04.810 ,1,0,0.,12.0,0.,12.0,0.,12.0,0.,12.0
1979-07-26 18:58:16.810 ,1,0,0.,12.0,0.,12.0,0.,12.0,0.,12.0
1979-07-26 18:58:28.810 ,0,0,0.,12.0,0.,12.0,0.,12.0,0.,12.0
1979-07-26 18:58:40.810 ,0,0,0.,12.0,0.,12.0,0.,12.0,0.,12.0
1979-07-26 18:58:52.810 ,0,0,0.,12.0,0.,12.0,0.,12.0,0.,12.0
1979-07-26 18:59:04.810 ,0,0,0.,12.0,0.,12.0,0.,12.0,0.,12.0
1979-07-26 18:59:16.810 ,0,0,0.,12.0,0.,12.0,0.,12.0,0.,12.0
1979-07-26 18:59:28.810 ,0,0,0.,12.0,0.,12.0,0.,12.0,0.,12.0
1979-07-26 18:59:40.810 ,0,0,0.,12.0,0.,12.0,0.,12.0,0.,12.0
1979-07-26 18:59:52.810 ,0,0,0.,12.0,0.,12.0,0.,12.0,0.,12.0
1979-07-26 19:00:04.810 ,1,0,0.,12.0,0.,12.0,0.,12.0,0.,12.0
1979-07-26 19:00:16.810 ,1,0,0.,12.0,0.,12.0,0.,12.0,0.,12.0
1979-07-26 19:00:28.810 ,1,0,0.,12.0,0.,12.0,0.,12.0,0.,12.0
1979-07-26 19:00:40.810 ,1,0,0.,12.0,0.,12.0,0.,12.0,0.,12.0
1979-07-26 19:00:52.810 ,2,0,0.,12.0,0.,12.0,0.,12.0,0.,12.0
1979-07-26 19:01:04.810 ,2,0,0.,12.0,0.,12.0,0.,12.0,0.,12.0
1979-07-26 19:01:16.810 ,2,0,0.,12.0,0.,12.0,0.,12.0,0.,12.0
1979-07-26 19:01:28.810 ,2,0,0.,12.0,0.,12.0,0.,12.0,0.,12.0
1979-07-26 19:01:40.810 ,3,0,0.,12.0,0.,12.0,0.,12.0,0.,12.0
1979-07-26 19:01:52.810 ,3,0,0.,12.0,0.,12.0,0.,12.0,0.,12.0
1979-07-26 19:02:04.810 ,3,0,0.,12.0,0.,12.0,0.,12.0,0.,12.0
1979-07-26 19:02:16.810 ,3,0,0.,12.0,0.,12.0,0.,12.0,0.,12.0
1979-07-26 19:02:28.810 ,4,0,0.,12.0,0.,12.0,0.,12.0,0.,12.0
1979-07-26 19:02:40.810 ,4,0,0.,12.0,0.,12.0,0.,12.0,0.,12.0
1979-07-26 19:02:52.810 ,4,0,0.,12.0,0.,12.0,0.,12.0,0.,12.0
1979-07-26 19:03:04.810 ,4,0,0.,12.0,0.,12.0,0.,12.0,0.,12.0
1979-07-26 19:03:16.810 ,5,0,0.,12.0,0.,12.0,0.,12.0,0.,12.0
1979-07-26 19:03:28.810 ,5,0,0.,12.0,0.,12.0,0.,12.0,0.,12.0
1979-07-26 19:03:40.810 ,5,0,0.,12.0,0.,12.0,0.,12.0,0.,12.0
1979-07-26 19:03:52.810 ,5,0,0.,12.0,0.,12.0,0.,12.0,0.,12.0
1979-07-26 19:04:04.810 ,6,0,0.,12.0,0.,12.0,0.,12.0,0.,12.0
1979-07-26 19:04:16.810 ,6,0,0.,12.0,0.,12.0,0.,12.0,0.,12.0
1979-07-26 19:04:28.810 ,6,0,0.,12.0,0.,12.0,0.,12.0,0.,12.0
1979-07-26 19:04:40.810 ,6,0,0.,12.0,0.,12.0,0.,12.0,0.,12.0
1979-07-26 19:04:52.810 ,7,0,0.,12.0,0.,12.0,0.,12.0,0.,12.0
1979-07-26 19:05:04.810 ,7,0,0.,12.0,0.,12.0,0.,12.0,0.,12.0
1979-07-26 19:05:16.810 ,7,0,0.,12.0,0.,12.0,0.,12.0,0.,12.0
1979-07-26 19:05:28.810 ,7,0,0.,12.0,0.,12.0,0.,12.0,0.,12.0
1979-07-26 19:05:40.810 ,7,0,0.,12.0,0.,12.0,0.,12.0,0.,12.0
1979-07-26 19:05:52.810 ,7,0,0.,12.0,0.,12.0,0.,12.0,0.,12.0
1979-07-26 19:06:04.810 ,7,0,0.,12.0,0.,12.0,0.,12.0,0.,12.0
1979-07-26 19:06:16.810 ,7,0,0.,12.0,0.,12.0,0.,12.0,0.,12.0
1979-07-26 19:06:28.810 ,6,0,0.,12.0,0.,12.0,0.,12.0,0.,12.0
1979-07-26 19:06:40.810 ,6,0,0.,12.0,0.,12.0,0.,12.0,0.,12.0
1979-07-26 19:06:52.810 ,6,0,0.,12.0,0.,12.0,0.,12.0,0.,12.0
1979-07-26 19:07:04.810 ,6,0,0.,12.0,0.,12.0,0.,12.0,0.,12.0
1979-07-26 19:07:16.810 ,5,0,0.,12.0,0.,12.0,0.,12.0,0.,12.0
1979-07-26 19:07:28.810 ,5,0,0.,12.0,0.,12.0,0.,12.0,0.,12.0
1979-07-26 19:07:40.810 ,5,0,0.,12.0,0.,12.0,0.,12.0,0.,12.0
1979-07-26 19:07:52.810 ,5,0,0.,12.0,0.,12.0,0.,12.0,0.,12.0
1979-07-26 19:08:04.810 ,4,0,0.,12.0,0.,12.0,0.,12.0,0.,12.0
1979-07-26 19:08:16.810 ,4,0,0.,12.0,0.,12.0,0.,12.0,0.,12.0
1979-07-26 19:08:28.810 ,4,0,0.,12.0,0.,12.0,0.,12.0,0.,12.0
1979-07-26 19:08:40.810 ,4,0,0.,12.0,0.,12.0,0.,12.0,0.,12.0
1979-07-26 19:08:52.810 ,3,0,0.,12.0,0.,12.0,0.,12.0,0.,12.0
1979-07-26 19:09:04.810 ,3,0,0.,12.0,0.,12.0,0.,12.0,0.,12.0
1979-07-26 19:09:16.810 ,3,0,0.,12.0,0.,12.0,0.,12.0,0.,12.0
1979-07-26 19:09:28.810 ,3,0,0.,12.0,0.,12.0,0.,12.0,0.,12.0
1979-07-26 19:09:40.810 ,2,0,0.,12.0,0.,12.0,0.,12.0,0.,12.0
1979-07-26 19:09:52.810 ,2,0,0.,12.0,0.,12.0,0.,12.0,0.,12.0
1979-07-26 19:10:04.810 ,2,0,0.,12.0,0.,12.0,0.,12.0,0.,12.0
1979-07-26 19:10:16.810 ,2,0,0.,12.0,0.,12.0,0.,12.0,0.,12.0
1979-07-26 19:10:28.810 ,1,0,0.,12.0,0.,12.0,0.,12.0,0.,12.0
1979-07-26 19:10:40.810 ,1,0,0.,12.0,0.,12.0,0.,12.0,0.,12.0
1979-07-26 19:10:52.810 ,1,0,0.,12.0,0.,12.0,0.,12.0,0.,12.0
1979-07-26 19:11:04.810 ,1,0,0.,12.0,0.,12.0,0.,12.0,0.,12.0
1979-07-26 19:11:16.810 ,0,0,0.,12.0,0.,12.0,0.,12.0,0.,12.0
1979-07-26 19:11:28.810 ,0,0,0.,12.0,0.,12.0,0.,12.0,0.,12.0
1979-07-26 19:11:40.810 ,0,0,0.,12.0,0.,12.0,0.,12.0,0.,12.0
1979-07-26 19:11:52.810 ,0,0,0.,12.0,0.,12.0,0.,12.0,0.,12.0
1979-07-26 19:12:04.810 ,0,0,0.,12.0,0.,12.0,0.,12.0,0.,12.0
1979-07-26 19:12:16.810 ,0,0,0.,12.0,0.,12.0,0.,12.0,0.,12.0
1979-07-26 19:12:28.810 ,0,0,0.,12.0,0.,12.0,0.,12.0,0.,12.0
1979-07-26 19:12:40.810 ,0,0,0.,12.0,0.,12.0,0.,12.0,0.,12.0
1979-07-26 19:12:52.810 ,1,0,0.,12.0,0.,12.0,0.,12.0,0.,12.0
1979-07-26 19:13:04.810 ,1,0,0.,12.0,0.,12.0,0.,12.0,0.,12.0
1979-07-26 19:13:16.810 ,1,0,0.,12.0,0.,12.0,0.,12.0,0.,12.0
1979-07-26 19:13:28.810 ,1,0,0.,12.0,0.,12.0,0.,12.0,0.,12.0
1979-07-26 19:13:40.810 ,2,0,0.,12.0,0.,12.0,0.,12.0,0.,12.0
1979-07-26 19:13:52.810 ,2,0,0.,12.0,0.,12.0,0.,12.0,0.,12.0
1979-07-26 19:14:04.810 ,2,0,0.,12.0,0.,12.0,0.,12.0,0.,12.0
1979-07-26 19:14:16.810 ,2,0,0.,12.0,0.,12.0,0.,12.0,0.,12.0
1979-07-26 19:14:28.810 ,3,0,0.,12.0,0.,12.0,0.,12.0,0.,12.0
1979-07-26 19:14:40.810 ,3,0,0.,12.0,0.,12.0,0.,12.0,0.,12.0
1979-07-26 19:14:52.810 ,3,0,1.,12.0,0.,12.0,0.,12.0,0.,12.0
1979-07-26 19:15:04.810 ,3,0,0.,12.0,0.,12.0,0.,12.0,0.,12.0
1979-07-26 19:15:16.810 ,4,0,0.,12.0,0.,12.0,0.,12.0,0.,12.0
1979-07-26 19:15:28.810 ,4,0,0.,12.0,0.,12.0,0.,12.0,0.,12.0
1979-07-26 19:15:40.810 ,4,0,0.,12.0,0.,12.0,0.,12.0,0.,12.0
1979-07-26 19:15:52.810 ,4,0,0.,12.0,0.,12.0,0.,12.0,0.,12.0
1979-07-26 19:16:04.810 ,5,0,0.,12.0,0.,12.0,0.,12.0,0.,12.0
1979-07-26 19:16:16.810 ,5,0,0.,12.0,0.,12.0,0.,12.0,0.,12.0
1979-07-26 19:16:28.810 ,5,0,0.,12.0,0.,12.0,0.,12.0,0.,12.0
1979-07-26 19:16:40.810 ,5,0,0.,12.0,0.,12.0,0.,12.0,0.,12.0
1979-07-26 19:16:52.810 ,6,0,0.,12.0,0.,12.0,0.,12.0,0.,12.0
1979-07-26 19:17:04.810 ,6,0,0.,12.0,0.,12.0,0.,12.0,0.,12.0
1979-07-26 19:17:16.810 ,6,0,0.,12.0,0.,12.0,0.,12.0,0.,12.0
1979-07-26 19:17:28.810 ,6,0,0.,12.0,0.,12.0,0.,12.0,0.,12.0
1979-07-26 19:17:40.810 ,7,0,0.,12.0,0.,12.0,0.,12.0,0.,12.0
1979-07-26 19:17:52.810 ,7,0,0.,12.0,0.,12.0,0.,12.0,0.,12.0
1979-07-26 19:18:04.810 ,7,0,0.,12.0,0.,12.0,0.,12.0,0.,12.0